{"data":{"norad_id":59045,"epoch":"2026-05-25T04:18:18.423360Z","epoch_age_seconds":52829,"freshness":"FRESH","line1":"1 59045U 24038Y   26145.17937990  .00001545  00000+0  65650-4 0  9993","line2":"2 59045  43.0030 311.8250 0000960 280.6737  79.4007 15.27578606126556","mean_motion":15.27578606,"eccentricity":9.6e-5,"inclination_deg":43.003,"raan_deg":311.825,"arg_perigee_deg":280.6737,"mean_anomaly_deg":79.4007,"bstar":6.565e-5,"rev_number":12655,"period_min":94.266834737276,"perigee_km":482.39459591438,"apogee_km":483.71194444626,"semimajor_km":6861.1902701803,"source":"CELESTRAK","updated_at":"2026-05-25T13:38:18.826981Z"}}